sat.trackr.live / text

‹ back to catalog

KUIPER-00062

NORAD 64522 · 2025-134Y

PAYLOAD ACTIVE UNKNOWN

§ Identity

Operator
Country
US
Launch date
2025-06-23
Launch site
AFETR
Launch vehicle
Mass (kg)
RCS (m²)

External: N2YO · Heavens-Above · Gunter

§ Orbital elements

Epoch: 2026-09-21T20:59:31.857792Z

Period
97.30 min
Inclination
51.8966°
Eccentricity
0.0000829
Mean motion
14.79941222 rev/d
Perigee alt
628.9 km
Apogee alt
630.1 km
Semi-major
7,007.6 km
B*
2.6777e-4
RAAN
83.0161°
Arg perigee
123.9822°
Mean anomaly
236.1219°
Rev number
6,916

§ Raw data

KUIPER-000621 64522U 25134Y   26264.87467428  .00001821  00000+0  26777-3 0  99932 64522  51.8966  83.0161 0000829 123.9822 236.1219 14.79941222 69168

JSON: /api/v1/satellites/64522 · /tle

For live sub-satellite position, see the globe view (requires WebGL).

§ Visibility from observer

Set your observer location to see the next 7 days of passes ≥ 10°. The values pass through the URL so the page stays shareable.

No JS? Fill the form by hand. The geolocation button needs JavaScript.